TimeEST,TemperatureF,Dew PointF,Humidity,Sea Level PressureIn,VisibilityMPH,Wind Direction,Wind SpeedMPH,Gust SpeedMPH,PrecipitationIn,Events,Conditions,WindDirDegrees,DateUTC
12:17 AM,32.0,32.0,100,29.87,10.0,Calm,Calm,-,N/A,,Scattered Clouds,0,2013-02-24 05:17:00
12:37 AM,32.0,32.0,100,29.87,10.0,Calm,Calm,-,N/A,,Clear,0,2013-02-24 05:37:00
12:57 AM,32.0,32.0,100,29.90,7.0,Calm,Calm,-,N/A,,Mostly Cloudy,0,2013-02-24 05:57:00
1:17 AM,32.0,32.0,100,29.90,10.0,Calm,Calm,-,N/A,,Overcast,0,2013-02-24 06:17:00
1:37 AM,32.0,32.0,100,29.90,7.0,Calm,Calm,-,N/A,,Overcast,0,2013-02-24 06:37:00
1:58 AM,33.8,32.0,93,29.90,7.0,Calm,Calm,-,N/A,,Overcast,0,2013-02-24 06:58:00
2:18 AM,33.8,32.0,93,29.89,7.0,Calm,Calm,-,N/A,,Mostly Cloudy,0,2013-02-24 07:18:00
2:38 AM,33.8,32.0,93,29.87,7.0,Calm,Calm,-,N/A,,Mostly Cloudy,0,2013-02-24 07:38:00
2:58 AM,32.0,32.0,100,29.87,7.0,Calm,Calm,-,N/A,,Scattered Clouds,0,2013-02-24 07:58:00
3:18 AM,32.0,32.0,100,29.88,7.0,Calm,Calm,-,N/A,,Clear,0,2013-02-24 08:18:00
3:38 AM,32.0,32.0,100,29.88,7.0,Calm,Calm,-,N/A,,Scattered Clouds,0,2013-02-24 08:38:00
3:58 AM,32.0,32.0,100,29.88,5.0,NNW,5.8,-,N/A,,Mostly Cloudy,340,2013-02-24 08:58:00
4:18 AM,32.0,32.0,100,29.88,5.0,North,3.5,-,N/A,,Overcast,360,2013-02-24 09:18:00
4:38 AM,32.0,32.0,100,29.89,5.0,Calm,Calm,-,N/A,,Overcast,0,2013-02-24 09:38:00
4:58 AM,32.0,32.0,100,29.89,7.0,Calm,Calm,-,N/A,,Overcast,0,2013-02-24 09:58:00
5:18 AM,32.0,32.0,100,29.89,5.0,Calm,Calm,-,N/A,,Overcast,0,2013-02-24 10:18:00
5:38 AM,32.0,32.0,100,29.90,7.0,Calm,Calm,-,N/A,,Overcast,0,2013-02-24 10:38:00
5:58 AM,32.0,32.0,100,29.90,7.0,WNW,3.5,-,N/A,,Overcast,300,2013-02-24 10:58:00
6:18 AM,33.8,33.8,100,29.90,10.0,WNW,4.6,-,N/A,,Overcast,290,2013-02-24 11:18:00
6:38 AM,35.6,32.0,87,29.90,10.0,NW,15.0,20.7,N/A,,Overcast,310,2013-02-24 11:38:00
6:58 AM,37.4,30.2,75,29.90,10.0,West,11.5,19.6,N/A,,Scattered Clouds,260,2013-02-24 11:58:00
7:18 AM,37.4,28.4,70,29.92,10.0,WNW,12.7,21.9,N/A,,Clear,300,2013-02-24 12:18:00
7:38 AM,35.6,28.4,75,29.92,10.0,WNW,10.4,18.4,N/A,,Clear,300,2013-02-24 12:38:00
7:58 AM,37.4,28.4,70,29.93,10.0,NW,10.4,-,N/A,,Clear,310,2013-02-24 12:58:00
8:18 AM,35.6,28.4,75,29.95,10.0,West,9.2,-,N/A,,Clear,280,2013-02-24 13:18:00
8:38 AM,35.6,26.6,70,29.95,10.0,West,11.5,24.2,N/A,,Clear,280,2013-02-24 13:38:00
8:58 AM,35.6,26.6,70,29.95,10.0,West,8.1,23.0,N/A,,Clear,280,2013-02-24 13:58:00
9:18 AM,37.4,26.6,65,29.96,10.0,NW,10.4,-,N/A,,Scattered Clouds,310,2013-02-24 14:18:00
9:38 AM,37.4,26.6,65,29.98,10.0,West,12.7,19.6,N/A,,Mostly Cloudy,280,2013-02-24 14:38:00
9:58 AM,39.2,26.6,61,29.98,10.0,WNW,11.5,21.9,N/A,,Overcast,290,2013-02-24 14:58:00
10:18 AM,41.0,26.6,57,29.98,10.0,West,9.2,-,N/A,,Overcast,270,2013-02-24 15:18:00
10:39 AM,39.2,26.6,61,29.98,10.0,WNW,5.8,-,N/A,,Overcast,300,2013-02-24 15:39:00
10:59 AM,41.0,26.6,57,29.97,10.0,WNW,11.5,16.1,N/A,,Mostly Cloudy,290,2013-02-24 15:59:00
11:19 AM,41.0,26.6,57,29.97,10.0,WNW,8.1,-,N/A,,Mostly Cloudy,290,2013-02-24 16:19:00
11:39 AM,37.4,26.6,65,29.98,10.0,West,13.8,24.2,N/A,,Overcast,260,2013-02-24 16:39:00
11:59 AM,37.4,26.6,65,29.98,10.0,West,12.7,18.4,N/A,,Overcast,270,2013-02-24 16:59:00
12:19 PM,37.4,26.6,65,29.98,10.0,West,12.7,17.3,N/A,,Overcast,270,2013-02-24 17:19:00
12:39 PM,37.4,26.6,65,29.97,10.0,West,8.1,18.4,N/A,,Overcast,270,2013-02-24 17:39:00
12:59 PM,37.4,26.6,65,29.98,10.0,WNW,5.8,-,N/A,,Overcast,300,2013-02-24 17:59:00
1:19 PM,37.4,26.6,65,29.98,10.0,West,10.4,21.9,N/A,,Overcast,270,2013-02-24 18:19:00
1:39 PM,37.4,26.6,65,29.98,10.0,WNW,8.1,20.7,N/A,,Overcast,300,2013-02-24 18:39:00
1:59 PM,35.6,26.6,70,29.99,10.0,NNW,16.1,21.9,N/A,,Overcast,330,2013-02-24 18:59:00
2:19 PM,35.6,26.6,70,30.00,10.0,West,15.0,24.2,N/A,,Overcast,280,2013-02-24 19:19:00
2:39 PM,35.6,24.8,65,30.01,10.0,NW,9.2,18.4,N/A,,Overcast,310,2013-02-24 19:39:00
2:59 PM,33.8,23.0,65,30.02,10.0,NW,11.5,20.7,N/A,,Overcast,320,2013-02-24 19:59:00
3:19 PM,33.8,23.0,65,30.03,10.0,NNW,6.9,-,N/A,,Overcast,340,2013-02-24 20:19:00
3:39 PM,33.8,24.8,70,30.04,10.0,NW,6.9,-,N/A,,Mostly Cloudy,310,2013-02-24 20:39:00
3:59 PM,33.8,24.8,70,30.04,10.0,NNW,10.4,16.1,N/A,,Mostly Cloudy,330,2013-02-24 20:59:00
4:19 PM,33.8,24.8,70,30.06,10.0,West,4.6,18.4,N/A,,Mostly Cloudy,270,2013-02-24 21:19:00
4:39 PM,33.8,24.8,70,30.06,10.0,North,6.9,19.6,N/A,,Overcast,350,2013-02-24 21:39:00
4:59 PM,32.0,24.8,75,30.07,10.0,Calm,Calm,-,N/A,,Mostly Cloudy,0,2013-02-24 21:59:00
5:19 PM,32.0,23.0,69,30.08,10.0,West,17.3,26.5,N/A,,Overcast,270,2013-02-24 22:19:00
5:39 PM,32.0,23.0,69,30.09,10.0,WSW,5.8,-,N/A,,Overcast,250,2013-02-24 22:39:00
5:59 PM,32.0,23.0,69,30.10,10.0,NW,10.4,16.1,N/A,,Overcast,320,2013-02-24 22:59:00
6:19 PM,32.0,23.0,69,30.11,10.0,NNW,5.8,-,N/A,,Overcast,340,2013-02-24 23:19:00
6:39 PM,32.0,23.0,69,30.12,10.0,NNW,9.2,-,N/A,,Mostly Cloudy,340,2013-02-24 23:39:00
6:59 PM,32.0,21.2,64,30.12,10.0,NW,8.1,16.1,N/A,,Mostly Cloudy,310,2013-02-24 23:59:00
7:19 PM,32.0,21.2,64,30.13,10.0,WNW,6.9,17.3,N/A,,Scattered Clouds,290,2013-02-25 00:19:00
7:40 PM,32.0,21.2,64,30.15,10.0,NW,5.8,17.3,N/A,,Mostly Cloudy,320,2013-02-25 00:40:00
8:00 PM,32.0,19.4,60,30.15,10.0,West,6.9,-,N/A,,Scattered Clouds,260,2013-02-25 01:00:00
8:20 PM,32.0,19.4,60,30.16,10.0,WNW,4.6,-,N/A,,Mostly Cloudy,290,2013-02-25 01:20:00
8:40 PM,32.0,19.4,60,30.16,10.0,NW,5.8,18.4,N/A,,Overcast,320,2013-02-25 01:40:00
9:00 PM,32.0,19.4,60,30.16,10.0,West,8.1,-,N/A,,Overcast,280,2013-02-25 02:00:00
9:20 PM,32.0,21.2,64,30.16,10.0,West,10.4,-,N/A,,Overcast,270,2013-02-25 02:20:00
9:40 PM,32.0,21.2,64,30.16,10.0,NNW,6.9,-,N/A,,Overcast,340,2013-02-25 02:40:00
10:00 PM,32.0,21.2,64,30.16,10.0,NW,3.5,-,N/A,,Overcast,320,2013-02-25 03:00:00
10:20 PM,32.0,21.2,64,30.16,10.0,WNW,3.5,-,N/A,,Mostly Cloudy,300,2013-02-25 03:20:00
10:40 PM,32.0,21.2,64,30.16,10.0,NW,8.1,-,N/A,,Scattered Clouds,310,2013-02-25 03:40:00
11:00 PM,32.0,21.2,64,30.16,10.0,NNW,5.8,-,N/A,,Clear,330,2013-02-25 04:00:00
11:20 PM,32.0,21.2,64,30.16,10.0,West,3.5,-,N/A,,Mostly Cloudy,270,2013-02-25 04:20:00
11:40 PM,32.0,21.2,64,30.16,10.0,WNW,4.6,-,N/A,,Mostly Cloudy,300,2013-02-25 04:40:00